[TLELIST] Archives

 

[list_settings.list_name] Current TLEs

November 20th 2013 PDT

HST 1 20580U 90037B 13324.21539543 .00004393 00000-0 29638-3 0 3779 2 20580 028.4719 329.6007 0002980 210.3541 232.6504 15.04222020 93204 ISS (ZARYA) 1 25544U 98067A 13324.46023163 .00017015 00000-0 30166-3 0 644 2 25544 051.6512 054.0914 0001105 099.9056 004.7476 15.50358074858940 CXO 1 25867U 99040B 13326.60315688 -.00000499 00000-0 00000+0 0 9770 2 25867 076.2480 330.5946 8391774 276.2684 359.7855 00.37797022 11136 ____________________________________________________________________ These 2-Line ...Continue Reading

[list_settings.list_name] Current TLEs

November 19th 2013 PDT

HST 1 20580U 90037B 13322.49841644 .00004649 00000-0 31448-3 0 3760 2 20580 028.4717 340.8658 0003104 190.2207 296.6946 15.04209223 92954 ISS (ZARYA) 1 25544U 98067A 13323.49420385 .00016796 00000-0 29824-3 0 579 2 25544 051.6513 058.8804 0001032 093.4765 015.9913 15.50323647858797 CXO 1 25867U 99040B 13323.95813598 -.00000588 00000-0 00000+0 0 9766 2 25867 076.2282 330.7447 8395848 276.3021 359.6795 00.37800029 11129 ____________________________________________________________________ These 2-Line ...Continue Reading

[list_settings.list_name] Current TLEs

November 18th 2013 PDT

HST 1 20580U 90037B 13321.22557103 .00005132 00000-0 34845-3 0 3755 2 20580 028.4717 349.2163 0003209 177.1187 243.5710 15.04197416 92753 ISS (ZARYA) 1 25544U 98067A 13322.45989318 -.00001485 00000-0 -17882-4 0 506 2 25544 051.6513 064.0063 0000898 071.2825 021.7694 15.50268518858632 CXO 1 25867U 99040B 13323.95813598 -.00000588 00000-0 00000+0 0 9766 2 25867 076.2282 330.7447 8395848 276.3021 359.6795 00.37800029 11129 ____________________________________________________________________ These 2-Line ...Continue Reading

[list_settings.list_name] Current TLEs

November 17th 2013 PDT

HST 1 20580U 90037B 13321.22557103 .00005132 00000-0 34845-3 0 3755 2 20580 028.4717 349.2163 0003209 177.1187 243.5710 15.04197416 92753 ISS (ZARYA) 1 25544U 98067A 13321.36610707 .00026294 00000-0 46294-3 0 396 2 25544 051.6500 069.4269 0001245 097.8452 006.8090 15.50258912858464 CXO 1 25867U 99040B 13323.95813598 -.00000588 00000-0 00000+0 0 9766 2 25867 076.2282 330.7447 8395848 276.3021 359.6795 00.37800029 11129 ____________________________________________________________________ These 2-Line ...Continue Reading

[list_settings.list_name] Current TLEs

November 16th 2013 PDT

HST 1 20580U 90037B 13319.51617826 .00003564 00000-0 23842-3 0 3744 2 20580 028.4718 000.4292 0003302 159.0696 346.8510 15.04183097 92509 ISS (ZARYA) 1 25544U 98067A 13320.39983233 .00014272 00000-0 25570-3 0 314 2 25544 051.6493 074.2095 0001016 112.3108 356.1621 15.50209804858314 CXO 1 25867U 99040B 13321.31409528 -.00000732 00000-0 00000+0 0 9758 2 25867 076.2153 330.9075 8398557 276.3265 359.7083 00.37801849 11116 ____________________________________________________________________ These 2-Line ...Continue Reading

[list_settings.list_name] Current TLEs

November 15th 2013 PDT

HST 1 20580U 90037B 13317.58748575 .00002523 00000-0 16535-3 0 3739 2 20580 028.4717 013.0824 0003401 139.4906 341.8939 15.04170264 92215 ISS (ZARYA) 1 25544U 98067A 13319.35536839 .00015564 00000-0 27834-3 0 246 2 25544 051.6490 079.3842 0001013 105.8378 289.9578 15.50184037858156 CXO 1 25867U 99040B 13321.31409528 -.00000732 00000-0 00000+0 0 9758 2 25867 076.2153 330.9075 8398557 276.3265 359.7083 00.37801849 11116 ____________________________________________________________________ These 2-Line ...Continue Reading

[list_settings.list_name] Current TLEs

November 14th 2013 PDT

HST 1 20580U 90037B 13317.58748575 .00002523 00000-0 16535-3 0 3739 2 20580 028.4717 013.0824 0003401 139.4906 341.8939 15.04170264 92215 ISS (ZARYA) 1 25544U 98067A 13318.39984669 .00016440 00000-0 29381-3 0 161 2 25544 051.6490 084.1191 0001228 110.1674 349.7298 15.50157598858003 CXO 1 25867U 99040B 13318.67031683 -.00000787 00000-0 00000+0 0 9745 2 25867 076.2146 331.0253 8401846 276.3667 359.7728 00.37802343 11105 ____________________________________________________________________ These 2-Line ...Continue Reading

[list_settings.list_name] Current TLEs

November 13th 2013 PDT

HST 1 20580U 90037B 13316.52989459 .00003492 00000-0 23351-3 0 3729 2 20580 028.4718 020.0223 0003481 129.1955 014.0365 15.04162708 92053 ISS (ZARYA) 1 25544U 98067A 13317.43379459 .00017416 00000-0 31105-3 0 93 2 25544 051.6492 088.9060 0001176 111.1819 354.1047 15.50129139857850 CXO 1 25867U 99040B 13318.67031683 -.00000787 00000-0 00000+0 0 9745 2 25867 076.2146 331.0253 8401846 276.3667 359.7728 00.37802343 11105 ____________________________________________________________________ These 2-Line ...Continue Reading

[list_settings.list_name] Current TLEs

November 12th 2013 PDT

HST 1 20580U 90037B 13314.66938171 .00002464 00000-0 16127-3 0 3717 2 20580 028.4716 032.2262 0003546 109.7225 019.0225 15.04149964 91772 ISS (ZARYA) 1 25544U 98067A 13316.40127684 .00017851 00000-0 31900-3 0 18 2 25544 051.6489 094.0225 0001194 108.6933 350.9349 15.50094413857692 CXO 1 25867U 99040B 13318.67031683 -.00000787 00000-0 00000+0 0 9745 2 25867 076.2146 331.0253 8401846 276.3667 359.7728 00.37802343 11105 ____________________________________________________________________ These 2-Line ...Continue Reading

[list_settings.list_name] Current TLEs

November 11th 2013 PDT

HST 1 20580U 90037B 13314.66938171 .00002464 00000-0 16127-3 0 3717 2 20580 028.4716 032.2262 0003546 109.7225 019.0225 15.04149964 91772 ISS (ZARYA) 1 25544U 98067A 13315.42558752 .00018681 00000-0 33380-3 0 9939 2 25544 051.6490 098.8573 0001269 103.6648 307.7614 15.50062016857546 CXO 1 25867U 99040B 13316.02651408 -.00000606 00000-0 00000+0 0 9734 2 25867 076.2092 331.1434 8407993 276.3985 359.8951 00.37804508 11091 ____________________________________________________________________ These 2-Line ...Continue Reading
  • This mailing list is a public mailing list - anyone may join or leave, at any time.
  • This mailing list is announce-only.

International Space Station (ISS) / Hubble Space Telescope (HST) / Chandra X-Ray Observatory Orbital Data via EMAIL

Privacy Policy:

Private list